Terug naar catalogus

ARIANE 44LP DEB

ActiefHEO
NORAD 25282·DEBRIS·🇫🇷 France

Gelanceerd Aug 8, 1989 vanaf Guiana Space Centre

Loading…

Volgende Passages (komende 24 uur)

TLE

VersSource: Space-Track

Epoch: Sep 13, 2026, 16:54 UTC

1 25282U 89062F   26256.70479337  .00007565  00000-0  90213-2 0  9995
2 25282   7.5833  53.4601 6808714 124.1845 319.7171  2.82822990279756

Volg ARIANE 44LP DEB in realtime met AllMySat

Download on the App Store